Time,TemperatureF,DewpointF,PressureIn,WindDirection,WindDirectionDegrees,WindSpeedMPH,WindSpeedGustMPH,Humidity,HourlyPrecipIn,Conditions,Clouds,dailyrainin,SolarRadiationWatts/m^2,SoftwareType,DateUTC
2013-02-03 00:07:00,10.3,7.2,30.07,NNE,23,6.0,10.0,87,0.00,,SKC,0.00,0.00,VWS V14.00,2013-02-03 06:07:00,
2013-02-03 00:21:00,10.3,7.2,30.07,North,360,4.0,11.0,87,0.00,,SKC,0.00,0.00,VWS V14.00,2013-02-03 06:21:00,
2013-02-03 06:43:00,2.7,-0.3,30.11,NNW,342,2.0,3.0,87,0.00,,SKC,0.00,0.00,VWS V14.00,2013-02-03 12:43:00,
2013-02-03 06:49:00,2.9,-0.1,30.10,NNW,342,3.0,3.0,87,0.00,,SKC,0.00,0.00,VWS V14.00,2013-02-03 12:49:00,
2013-02-03 06:54:00,3.2,0.2,30.10,NNW,342,2.0,2.0,87,0.00,,SKC,0.00,0.00,VWS V14.00,2013-02-03 12:54:00,
2013-02-03 06:59:00,3.4,0.4,30.10,NNW,342,2.0,3.0,87,0.00,,SKC,0.00,0.00,VWS V14.00,2013-02-03 12:59:00,
2013-02-03 07:04:00,3.7,0.7,30.11,NNW,342,1.0,4.0,87,0.00,,SKC,0.00,0.00,VWS V14.00,2013-02-03 13:04:00,
2013-02-03 07:09:00,3.9,0.9,30.11,NNW,342,2.0,3.0,87,0.00,,SKC,0.00,0.00,VWS V14.00,2013-02-03 13:09:00,
2013-02-03 07:14:00,4.1,1.1,30.11,NNW,342,2.0,2.0,87,0.00,,SKC,0.00,0.00,VWS V14.00,2013-02-03 13:14:00,
2013-02-03 07:19:00,4.3,1.3,30.11,NNW,342,1.0,2.0,87,0.00,,SKC,0.00,0.00,VWS V14.00,2013-02-03 13:19:00,
2013-02-03 07:24:00,4.4,1.4,30.11,NNW,342,1.0,2.0,87,0.00,,SKC,0.00,0.00,VWS V14.00,2013-02-03 13:24:00,
2013-02-03 07:29:00,4.5,1.5,30.10,NNW,342,1.0,1.0,87,0.00,,SKC,0.00,0.00,VWS V14.00,2013-02-03 13:29:00,
2013-02-03 07:34:00,4.5,1.5,30.10,NNW,342,1.0,2.0,87,0.00,,SKC,0.00,5.00,VWS V14.00,2013-02-03 13:34:00,
2013-02-03 07:39:00,4.6,1.6,30.11,NNW,342,0.0,0.0,87,0.00,,SKC,0.00,7.00,VWS V14.00,2013-02-03 13:39:00,
2013-02-03 07:44:00,4.7,1.7,30.11,NNW,342,0.0,0.0,87,0.00,,SKC,0.00,7.00,VWS V14.00,2013-02-03 13:44:00,
2013-02-03 07:49:00,4.8,1.8,30.11,NNW,342,0.0,0.0,87,0.00,,SKC,0.00,9.00,VWS V14.00,2013-02-03 13:49:00,
2013-02-03 07:54:00,5.0,2.0,30.11,NNW,342,1.0,2.0,87,0.00,,SKC,0.00,11.00,VWS V14.00,2013-02-03 13:54:00,
2013-02-03 07:59:00,5.1,2.1,30.12,NNW,342,1.0,2.0,87,0.00,,SKC,0.00,18.00,VWS V14.00,2013-02-03 13:59:00,
2013-02-03 08:04:00,5.3,2.3,30.11,NNW,342,0.0,2.0,87,0.00,,SKC,0.00,21.00,VWS V14.00,2013-02-03 14:04:00,
2013-02-03 08:09:00,5.4,2.4,30.12,NNW,342,2.0,4.0,87,0.00,,SKC,0.00,26.00,VWS V14.00,2013-02-03 14:09:00,
2013-02-03 08:14:00,5.5,2.5,30.12,NNW,342,0.0,1.0,87,0.00,,SKC,0.00,32.00,VWS V14.00,2013-02-03 14:14:00,
2013-02-03 08:19:00,5.7,2.7,30.12,NNW,342,1.0,2.0,87,0.00,,SKC,0.00,53.00,VWS V14.00,2013-02-03 14:19:00,
2013-02-03 08:24:00,5.9,2.9,30.12,NNW,342,0.0,0.0,87,0.00,,SKC,0.00,47.00,VWS V14.00,2013-02-03 14:24:00,
2013-02-03 08:30:00,6.0,3.0,30.11,NNW,342,4.0,4.0,87,0.00,,SKC,0.00,39.00,VWS V14.00,2013-02-03 14:30:00,
2013-02-03 08:35:00,6.2,3.2,30.11,NNW,342,1.0,1.0,87,0.00,,SKC,0.00,47.00,VWS V14.00,2013-02-03 14:35:00,
2013-02-03 08:40:00,6.3,3.3,30.12,NNW,342,1.0,3.0,87,0.00,,SKC,0.00,65.00,VWS V14.00,2013-02-03 14:40:00,
2013-02-03 08:45:00,6.5,3.5,30.12,NNW,342,2.0,3.0,87,0.00,,SKC,0.00,76.00,VWS V14.00,2013-02-03 14:45:00,
2013-02-03 08:50:00,6.7,3.7,30.11,NNW,342,1.0,2.0,87,0.00,,SKC,0.00,81.00,VWS V14.00,2013-02-03 14:50:00,
2013-02-03 08:55:00,6.9,3.9,30.11,NNW,342,1.0,3.0,87,0.00,,SKC,0.00,81.00,VWS V14.00,2013-02-03 14:55:00,
2013-02-03 09:00:00,7.1,4.1,30.11,NNW,342,1.0,2.0,87,0.00,,SKC,0.00,100.00,VWS V14.00,2013-02-03 15:00:00,
2013-02-03 09:05:00,7.3,4.0,30.11,NNW,342,1.0,4.0,86,0.00,,SKC,0.00,109.00,VWS V14.00,2013-02-03 15:05:00,
2013-02-03 09:10:00,7.6,4.3,30.11,NNW,342,2.0,4.0,86,0.00,,SKC,0.00,113.00,VWS V14.00,2013-02-03 15:10:00,
2013-02-03 09:15:00,7.7,4.4,30.11,NNW,342,2.0,3.0,86,0.00,,SKC,0.00,111.00,VWS V14.00,2013-02-03 15:15:00,
2013-02-03 09:20:00,7.9,4.3,30.11,NNW,342,0.0,2.0,85,0.00,,SKC,0.00,144.00,VWS V14.00,2013-02-03 15:20:00,
2013-02-03 09:25:00,8.1,4.5,30.11,NNW,342,0.0,3.0,85,0.00,,SKC,0.00,144.00,VWS V14.00,2013-02-03 15:25:00,
2013-02-03 09:30:00,8.4,4.8,30.11,NNW,342,0.0,1.0,85,0.00,,SKC,0.00,151.00,VWS V14.00,2013-02-03 15:30:00,
2013-02-03 09:35:00,8.7,4.9,30.10,NNW,342,0.0,2.0,84,0.00,,SKC,0.00,176.00,VWS V14.00,2013-02-03 15:35:00,
2013-02-03 09:40:00,9.0,5.2,30.10,NNW,342,1.0,3.0,84,0.00,,SKC,0.00,195.00,VWS V14.00,2013-02-03 15:40:00,
2013-02-03 09:45:00,9.2,5.1,30.11,NNW,342,2.0,3.0,83,0.00,,SKC,0.00,146.00,VWS V14.00,2013-02-03 15:45:00,
2013-02-03 09:50:00,9.4,5.3,30.11,NNW,342,0.0,1.0,83,0.00,,SKC,0.00,151.00,VWS V14.00,2013-02-03 15:50:00,
2013-02-03 09:55:00,9.7,5.6,30.11,NNW,342,1.0,2.0,83,0.00,,SKC,0.00,151.00,VWS V14.00,2013-02-03 15:55:00,
2013-02-03 10:00:00,9.8,5.4,30.11,NNW,342,1.0,3.0,82,0.00,,SKC,0.00,149.00,VWS V14.00,2013-02-03 16:00:00,
2013-02-03 10:05:00,9.8,5.2,30.12,NNW,342,1.0,4.0,81,0.00,,SKC,0.00,149.00,VWS V14.00,2013-02-03 16:05:00,
2013-02-03 10:10:00,9.9,5.2,30.12,NNW,342,3.0,4.0,81,0.00,,SKC,0.00,141.00,VWS V14.00,2013-02-03 16:10:00,
2013-02-03 10:15:00,9.8,4.9,30.13,NNW,342,1.0,3.0,80,0.00,,SKC,0.00,151.00,VWS V14.00,2013-02-03 16:15:00,
2013-02-03 10:20:00,9.8,5.2,30.12,NNW,342,2.0,3.0,81,0.00,,SKC,0.00,163.00,VWS V14.00,2013-02-03 16:20:00,
2013-02-03 10:25:00,9.9,5.2,30.13,NNW,342,0.0,2.0,81,0.00,,SKC,0.00,162.00,VWS V14.00,2013-02-03 16:25:00,
2013-02-03 10:30:00,10.0,5.3,30.12,NNW,342,2.0,2.0,81,0.00,,SKC,0.00,181.00,VWS V14.00,2013-02-03 16:30:00,
2013-02-03 10:35:00,10.3,5.6,30.12,NNW,342,1.0,1.0,81,0.00,,SKC,0.00,195.00,VWS V14.00,2013-02-03 16:35:00,
2013-02-03 10:40:00,10.5,5.6,30.11,NNW,342,1.0,2.0,80,0.00,,SKC,0.00,155.00,VWS V14.00,2013-02-03 16:40:00,
2013-02-03 10:45:00,10.7,5.8,30.11,NNW,342,1.0,2.0,80,0.00,,SKC,0.00,156.00,VWS V14.00,2013-02-03 16:45:00,
2013-02-03 10:50:00,10.7,5.8,30.11,NNW,342,0.0,2.0,80,0.00,,SKC,0.00,167.00,VWS V14.00,2013-02-03 16:50:00,
2013-02-03 10:55:00,10.9,5.7,30.11,NNW,342,0.0,3.0,79,0.00,,SKC,0.00,174.00,VWS V14.00,2013-02-03 16:55:00,
2013-02-03 11:00:00,11.0,5.8,30.11,NNW,342,0.0,2.0,79,0.00,,SKC,0.00,174.00,VWS V14.00,2013-02-03 17:00:00,
2013-02-03 11:05:00,11.1,5.9,30.11,NNW,342,0.0,2.0,79,0.00,,SKC,0.00,179.00,VWS V14.00,2013-02-03 17:05:00,
2013-02-03 11:10:00,11.1,5.6,30.11,NNW,342,1.0,2.0,78,0.00,,SKC,0.00,181.00,VWS V14.00,2013-02-03 17:10:00,
2013-02-03 11:15:00,11.1,5.6,30.11,NNW,342,2.0,2.0,78,0.00,,SKC,0.00,190.00,VWS V14.00,2013-02-03 17:15:00,
2013-02-03 11:20:00,11.2,6.0,30.11,NNW,342,0.0,1.0,79,0.00,,SKC,0.00,193.00,VWS V14.00,2013-02-03 17:20:00,
2013-02-03 11:26:00,11.3,6.1,30.12,NNW,342,0.0,3.0,79,0.00,,SKC,0.00,190.00,VWS V14.00,2013-02-03 17:26:00,
2013-02-03 11:31:00,11.4,6.2,30.11,NNW,342,1.0,2.0,79,0.00,,SKC,0.00,197.00,VWS V14.00,2013-02-03 17:31:00,
2013-02-03 11:36:00,11.4,6.2,30.10,NNW,342,2.0,4.0,79,0.00,,SKC,0.00,202.00,VWS V14.00,2013-02-03 17:36:00,
2013-02-03 11:41:00,11.4,6.2,30.09,NNW,342,3.0,3.0,79,0.00,,SKC,0.00,202.00,VWS V14.00,2013-02-03 17:41:00,
2013-02-03 11:46:00,11.2,5.7,30.09,WNW,298,1.0,4.0,78,0.00,,SKC,0.00,199.00,VWS V14.00,2013-02-03 17:46:00,
2013-02-03 11:51:00,11.1,5.6,30.10,WNW,298,0.0,3.0,78,0.00,,SKC,0.00,190.00,VWS V14.00,2013-02-03 17:51:00,
2013-02-03 11:56:00,11.1,5.9,30.09,WNW,298,2.0,2.0,79,0.00,,SKC,0.00,192.00,VWS V14.00,2013-02-03 17:56:00,
2013-02-03 12:01:00,11.0,5.8,30.09,WNW,298,1.0,3.0,79,0.00,,SKC,0.00,206.00,VWS V14.00,2013-02-03 18:01:00,
2013-02-03 12:06:00,11.1,6.2,30.09,WNW,298,0.0,3.0,80,0.00,,SKC,0.00,209.00,VWS V14.00,2013-02-03 18:06:00,
2013-02-03 12:11:00,11.1,5.9,30.08,WNW,298,0.0,1.0,79,0.00,,SKC,0.00,200.00,VWS V14.00,2013-02-03 18:11:00,
2013-02-03 12:16:00,11.2,6.0,30.08,WNW,298,0.0,0.0,79,0.00,,SKC,0.00,197.00,VWS V14.00,2013-02-03 18:16:00,
2013-02-03 12:21:00,11.3,6.1,30.07,WNW,298,0.0,0.0,79,0.00,,SKC,0.00,197.00,VWS V14.00,2013-02-03 18:21:00,
2013-02-03 12:26:00,11.4,6.2,30.08,WNW,298,0.0,0.0,79,0.00,,SKC,0.00,190.00,VWS V14.00,2013-02-03 18:26:00,
2013-02-03 12:31:00,11.3,6.1,30.07,WNW,298,0.0,0.0,79,0.00,,SKC,0.00,193.00,VWS V14.00,2013-02-03 18:31:00,
2013-02-03 12:36:00,11.4,6.2,30.07,WNW,298,0.0,0.0,79,0.00,,SKC,0.00,181.00,VWS V14.00,2013-02-03 18:36:00,
2013-02-03 12:41:00,11.4,6.2,30.07,WNW,298,0.0,0.0,79,0.00,,SKC,0.00,178.00,VWS V14.00,2013-02-03 18:41:00,
2013-02-03 12:46:00,11.6,6.4,30.08,WNW,298,0.0,0.0,79,0.00,,SKC,0.00,181.00,VWS V14.00,2013-02-03 18:46:00,
2013-02-03 12:51:00,11.7,6.5,30.07,WNW,298,0.0,0.0,79,0.00,,SKC,0.00,181.00,VWS V14.00,2013-02-03 18:51:00,
2013-02-03 12:56:00,11.9,6.7,30.07,WNW,298,0.0,0.0,79,0.00,,SKC,0.00,186.00,VWS V14.00,2013-02-03 18:56:00,
2013-02-03 13:01:00,12.0,6.8,30.06,WNW,298,0.0,0.0,79,0.00,,SKC,0.00,209.00,VWS V14.00,2013-02-03 19:01:00,
2013-02-03 13:06:00,12.1,6.6,30.06,WNW,298,0.0,0.0,78,0.00,,SKC,0.00,225.00,VWS V14.00,2013-02-03 19:06:00,
2013-02-03 13:11:00,12.1,6.6,30.05,WNW,298,3.0,4.0,78,0.00,,SKC,0.00,213.00,VWS V14.00,2013-02-03 19:11:00,
2013-02-03 13:16:00,12.1,6.6,30.05,WSW,250,1.0,3.0,78,0.00,,SKC,0.00,234.00,VWS V14.00,2013-02-03 19:16:00,
2013-02-03 13:21:00,12.5,7.0,30.05,WSW,250,2.0,3.0,78,0.00,,SKC,0.00,232.00,VWS V14.00,2013-02-03 19:21:00,
2013-02-03 13:26:00,12.4,6.6,30.04,WSW,250,2.0,4.0,77,0.00,,SKC,0.00,214.00,VWS V14.00,2013-02-03 19:26:00,
2013-02-03 13:31:00,12.2,6.4,30.04,WSW,250,2.0,3.0,77,0.00,,SKC,0.00,221.00,VWS V14.00,2013-02-03 19:31:00,
2013-02-03 13:36:00,12.2,6.7,30.04,WSW,250,0.0,2.0,78,0.00,,SKC,0.00,206.00,VWS V14.00,2013-02-03 19:36:00,
2013-02-03 13:41:00,12.3,6.8,30.04,WSW,250,2.0,3.0,78,0.00,,SKC,0.00,218.00,VWS V14.00,2013-02-03 19:41:00,
2013-02-03 13:46:00,12.3,6.5,30.03,WSW,250,0.0,3.0,77,0.00,,SKC,0.00,236.00,VWS V14.00,2013-02-03 19:46:00,
2013-02-03 13:51:00,12.3,6.5,30.04,WSW,250,2.0,3.0,77,0.00,,SKC,0.00,244.00,VWS V14.00,2013-02-03 19:51:00,
2013-02-03 13:56:00,12.5,6.7,30.03,WSW,250,0.0,3.0,77,0.00,,SKC,0.00,357.00,VWS V14.00,2013-02-03 19:56:00,
2013-02-03 14:01:00,13.1,7.3,30.03,WSW,250,2.0,2.0,77,0.00,,SKC,0.00,380.00,VWS V14.00,2013-02-03 20:01:00,
2013-02-03 14:06:00,13.8,7.9,30.02,WSW,250,0.0,1.0,77,0.00,,SKC,0.00,422.00,VWS V14.00,2013-02-03 20:06:00,
2013-02-03 14:11:00,14.9,8.7,30.02,WSW,250,2.0,2.0,76,0.00,,SKC,0.00,417.00,VWS V14.00,2013-02-03 20:11:00,
2013-02-03 14:16:00,15.4,8.6,30.02,SSW,212,3.0,5.0,74,0.00,,SKC,0.00,334.00,VWS V14.00,2013-02-03 20:16:00,
2013-02-03 14:21:00,15.7,8.9,30.02,South,186,0.0,4.0,74,0.00,,SKC,0.00,316.00,VWS V14.00,2013-02-03 20:21:00,
2013-02-03 14:26:00,15.7,8.6,30.02,WNW,284,2.0,4.0,73,0.00,,SKC,0.00,278.00,VWS V14.00,2013-02-03 20:26:00,
2013-02-03 14:31:00,15.7,8.6,30.02,WNW,284,0.0,3.0,73,0.00,,SKC,0.00,274.00,VWS V14.00,2013-02-03 20:31:00,
2013-02-03 14:37:00,16.3,8.9,30.01,WNW,284,0.0,0.0,72,0.00,,SKC,0.00,278.00,VWS V14.00,2013-02-03 20:37:00,
2013-02-03 14:42:00,16.5,8.8,30.01,WNW,284,1.0,3.0,71,0.00,,SKC,0.00,244.00,VWS V14.00,2013-02-03 20:42:00,
2013-02-03 14:47:00,16.4,8.7,30.01,WNW,284,0.0,4.0,71,0.00,,SKC,0.00,267.00,VWS V14.00,2013-02-03 20:47:00,
2013-02-03 14:52:00,16.3,8.2,30.00,WSW,243,4.0,4.0,70,0.00,,SKC,0.00,262.00,VWS V14.00,2013-02-03 20:52:00,
2013-02-03 14:57:00,16.1,8.4,30.00,South,190,1.0,5.0,71,0.00,,SKC,0.00,265.00,VWS V14.00,2013-02-03 20:57:00,
2013-02-03 15:02:00,15.6,7.9,30.00,South,182,2.0,7.0,71,0.00,,SKC,0.00,253.00,VWS V14.00,2013-02-03 21:02:00,
2013-02-03 15:07:00,14.9,7.5,30.00,SSW,205,3.0,7.0,72,0.00,,SKC,0.00,220.00,VWS V14.00,2013-02-03 21:07:00,
2013-02-03 15:12:00,14.6,7.5,30.00,SW,214,3.0,5.0,73,0.00,,SKC,0.00,183.00,VWS V14.00,2013-02-03 21:12:00,
2013-02-03 15:17:00,14.0,7.0,30.00,SE,145,2.0,4.0,73,0.00,,SKC,0.00,141.00,VWS V14.00,2013-02-03 21:17:00,
2013-02-03 15:22:00,13.6,6.9,30.00,South,174,2.0,5.0,74,0.00,,SKC,0.00,146.00,VWS V14.00,2013-02-03 21:22:00,
2013-02-03 15:27:00,13.2,6.8,30.00,South,171,3.0,5.0,75,0.00,,SKC,0.00,141.00,VWS V14.00,2013-02-03 21:27:00,
2013-02-03 15:32:00,13.1,7.0,30.00,South,190,1.0,5.0,76,0.00,,SKC,0.00,127.00,VWS V14.00,2013-02-03 21:32:00,
2013-02-03 15:37:00,13.0,6.9,30.00,South,182,6.0,6.0,76,0.00,,SKC,0.00,118.00,VWS V14.00,2013-02-03 21:37:00,
2013-02-03 15:42:00,12.7,6.6,30.00,South,186,4.0,7.0,76,0.00,,SKC,0.00,111.00,VWS V14.00,2013-02-03 21:42:00,
2013-02-03 15:47:00,12.6,6.5,30.00,SE,146,3.0,5.0,76,0.00,,SKC,0.00,114.00,VWS V14.00,2013-02-03 21:47:00,
2013-02-03 15:52:00,12.5,6.7,30.00,SSE,153,2.0,5.0,77,0.00,,SKC,0.00,111.00,VWS V14.00,2013-02-03 21:52:00,
2013-02-03 15:57:00,12.2,6.4,30.00,SSE,155,3.0,4.0,77,0.00,,SKC,0.00,111.00,VWS V14.00,2013-02-03 21:57:00,
2013-02-03 16:02:00,12.2,6.7,30.00,SSE,161,6.0,6.0,78,0.00,,SKC,0.00,81.00,VWS V14.00,2013-02-03 22:02:00,
2013-02-03 16:07:00,12.1,6.6,30.00,SSE,166,3.0,4.0,78,0.00,,SKC,0.00,88.00,VWS V14.00,2013-02-03 22:07:00,
2013-02-03 16:12:00,12.1,6.6,30.00,SSE,165,3.0,5.0,78,0.00,,SKC,0.00,77.00,VWS V14.00,2013-02-03 22:12:00,
2013-02-03 16:17:00,12.1,6.6,30.00,SE,136,2.0,4.0,78,0.00,,SKC,0.00,63.00,VWS V14.00,2013-02-03 22:17:00,
2013-02-03 16:22:00,12.0,6.8,30.00,ESE,119,3.0,4.0,79,0.00,,SKC,0.00,51.00,VWS V14.00,2013-02-03 22:22:00,
2013-02-03 16:27:00,11.9,6.7,30.00,SE,130,1.0,3.0,79,0.00,,SKC,0.00,42.00,VWS V14.00,2013-02-03 22:27:00,
2013-02-03 16:32:00,11.9,6.7,30.00,South,169,4.0,6.0,79,0.00,,SKC,0.00,46.00,VWS V14.00,2013-02-03 22:32:00,
2013-02-03 16:37:00,11.8,6.8,30.00,SSE,147,0.0,6.0,80,0.00,,SKC,0.00,40.00,VWS V14.00,2013-02-03 22:37:00,
2013-02-03 16:42:00,11.7,6.7,30.00,SE,142,3.0,5.0,80,0.00,,SKC,0.00,37.00,VWS V14.00,2013-02-03 22:42:00,
2013-02-03 16:47:00,11.6,6.6,30.00,SSE,156,1.0,5.0,80,0.00,,SKC,0.00,33.00,VWS V14.00,2013-02-03 22:47:00,
2013-02-03 16:52:00,11.6,6.9,30.00,South,170,2.0,4.0,81,0.00,,SKC,0.00,30.00,VWS V14.00,2013-02-03 22:52:00,
2013-02-03 16:57:00,11.5,7.1,29.99,South,170,3.0,4.0,82,0.00,,SKC,0.00,26.00,VWS V14.00,2013-02-03 22:57:00,
2013-02-03 17:02:00,11.4,7.0,29.99,South,170,1.0,4.0,82,0.00,,SKC,0.00,19.00,VWS V14.00,2013-02-03 23:02:00,
2013-02-03 17:07:00,11.3,7.2,29.99,SSE,156,2.0,5.0,83,0.00,,SKC,0.00,14.00,VWS V14.00,2013-02-03 23:07:00,
2013-02-03 17:12:00,11.2,7.1,29.99,SSE,167,2.0,4.0,83,0.00,,SKC,0.00,9.00,VWS V14.00,2013-02-03 23:12:00,
2013-02-03 17:17:00,11.1,7.2,29.99,SSE,159,2.0,5.0,84,0.00,,SKC,0.00,7.00,VWS V14.00,2013-02-03 23:17:00,
2013-02-03 17:22:00,11.0,7.1,29.99,SSE,155,3.0,5.0,84,0.00,,SKC,0.00,0.00,VWS V14.00,2013-02-03 23:22:00,
2013-02-03 17:27:00,10.9,7.3,30.00,ESE,117,2.0,3.0,85,0.00,,SKC,0.00,0.00,VWS V14.00,2013-02-03 23:27:00,
2013-02-03 17:33:00,10.8,7.2,29.99,ESE,117,1.0,3.0,85,0.00,,SKC,0.00,0.00,VWS V14.00,2013-02-03 23:33:00,
2013-02-03 17:38:00,10.8,7.2,29.99,ESE,117,1.0,1.0,85,0.00,,SKC,0.00,0.00,VWS V14.00,2013-02-03 23:38:00,
2013-02-03 17:43:00,10.8,7.2,29.99,ESE,117,1.0,1.0,85,0.00,,SKC,0.00,0.00,VWS V14.00,2013-02-03 23:43:00,
2013-02-03 17:48:00,10.8,7.2,29.99,ESE,117,1.0,1.0,85,0.00,,SKC,0.00,0.00,VWS V14.00,2013-02-03 23:48:00,
2013-02-03 17:53:00,10.8,7.2,30.00,ESE,117,1.0,1.0,85,0.00,,SKC,0.00,0.00,VWS V14.00,2013-02-03 23:53:00,
2013-02-03 17:58:00,10.3,7.2,30.00,SSE,152,1.0,2.0,87,0.00,,SKC,0.00,0.00,VWS V14.00,2013-02-03 23:58:00,
2013-02-03 18:03:00,10.3,7.2,30.00,SE,124,3.0,4.0,87,0.00,,SKC,0.00,0.00,VWS V14.00,2013-02-04 00:03:00,
2013-02-03 18:08:00,10.2,7.1,30.00,SE,141,2.0,5.0,87,0.00,,SKC,0.00,0.00,VWS V14.00,2013-02-04 00:08:00,
2013-02-03 18:13:00,10.1,7.0,30.00,ESE,119,2.0,4.0,87,0.00,,SKC,0.00,0.00,VWS V14.00,2013-02-04 00:13:00,
2013-02-03 18:18:00,10.1,7.0,30.00,ESE,115,2.0,5.0,87,0.00,,SKC,0.00,0.00,VWS V14.00,2013-02-04 00:18:00,
2013-02-03 18:23:00,10.0,6.9,30.00,SSE,154,1.0,4.0,87,0.00,,SKC,0.00,0.00,VWS V14.00,2013-02-04 00:23:00,
2013-02-03 18:28:00,10.0,6.9,29.99,SE,146,2.0,5.0,87,0.00,,SKC,0.00,0.00,VWS V14.00,2013-02-04 00:28:00,
2013-02-03 18:33:00,10.0,6.9,29.99,SSE,153,2.0,4.0,87,0.00,,SKC,0.00,0.00,VWS V14.00,2013-02-04 00:33:00,
2013-02-03 18:38:00,9.9,6.8,29.99,ESE,111,1.0,3.0,87,0.00,,SKC,0.00,0.00,VWS V14.00,2013-02-04 00:38:00,
2013-02-03 18:43:00,9.9,6.8,29.99,SE,144,5.0,5.0,87,0.00,,SKC,0.00,0.00,VWS V14.00,2013-02-04 00:43:00,
2013-02-03 18:48:00,9.9,6.8,29.99,SE,139,4.0,6.0,87,0.00,,SKC,0.00,0.00,VWS V14.00,2013-02-04 00:48:00,
2013-02-03 18:53:00,9.9,6.8,30.00,ESE,113,2.0,4.0,87,0.00,,SKC,0.00,0.00,VWS V14.00,2013-02-04 00:53:00,
2013-02-03 18:58:00,9.8,7.0,30.00,ESE,115,1.0,4.0,88,0.00,,SKC,0.00,0.00,VWS V14.00,2013-02-04 00:58:00,
2013-02-03 19:03:00,9.8,7.0,29.99,East,95,1.0,3.0,88,0.00,,SKC,0.00,0.00,VWS V14.00,2013-02-04 01:03:00,
2013-02-03 19:08:00,9.8,6.7,30.00,SSE,149,4.0,4.0,87,0.00,,SKC,0.00,0.00,VWS V14.00,2013-02-04 01:08:00,
2013-02-03 19:13:00,9.8,6.7,29.99,SE,126,2.0,5.0,87,0.00,,SKC,0.00,0.00,VWS V14.00,2013-02-04 01:13:00,
2013-02-03 19:18:00,9.8,7.0,29.99,ESE,117,1.0,3.0,88,0.00,,SKC,0.00,0.00,VWS V14.00,2013-02-04 01:18:00,
2013-02-03 19:23:00,9.8,7.0,29.99,ESE,119,0.0,3.0,88,0.00,,SKC,0.00,0.00,VWS V14.00,2013-02-04 01:23:00,
2013-02-03 19:28:00,9.8,7.0,29.99,ESE,119,1.0,4.0,88,0.00,,SKC,0.00,0.00,VWS V14.00,2013-02-04 01:28:00,
2013-02-03 19:33:00,9.9,7.1,29.99,SE,125,0.0,5.0,88,0.00,,SKC,0.00,0.00,VWS V14.00,2013-02-04 01:33:00,
2013-02-03 19:38:00,9.9,7.1,30.00,East,82,0.0,3.0,88,0.00,,SKC,0.00,0.00,VWS V14.00,2013-02-04 01:38:00,
2013-02-03 19:43:00,9.9,7.1,29.99,East,98,0.0,5.0,88,0.00,,SKC,0.00,0.00,VWS V14.00,2013-02-04 01:43:00,
2013-02-03 19:48:00,9.9,7.1,29.98,SE,144,1.0,5.0,88,0.00,,SKC,0.00,0.00,VWS V14.00,2013-02-04 01:48:00,
2013-02-03 19:53:00,9.9,7.1,29.98,ESE,110,2.0,7.0,88,0.00,,SKC,0.00,0.00,VWS V14.00,2013-02-04 01:53:00,
2013-02-03 19:58:00,9.8,7.0,29.98,ESE,123,1.0,2.0,88,0.00,,SKC,0.00,0.00,VWS V14.00,2013-02-04 01:58:00,
2013-02-03 20:03:00,9.8,7.0,29.98,ENE,76,0.0,1.0,88,0.00,,SKC,0.00,0.00,VWS V14.00,2013-02-04 02:03:00,
2013-02-03 20:08:00,9.8,7.0,29.98,ENE,78,1.0,2.0,88,0.00,,SKC,0.00,0.00,VWS V14.00,2013-02-04 02:08:00,
2013-02-03 20:13:00,9.8,7.0,29.98,ENE,66,1.0,1.0,88,0.00,,SKC,0.00,0.00,VWS V14.00,2013-02-04 02:13:00,
2013-02-03 20:19:00,9.8,7.0,29.98,ENE,71,0.0,0.0,88,0.00,,SKC,0.00,0.00,VWS V14.00,2013-02-04 02:19:00,
2013-02-03 20:24:00,9.9,7.1,29.98,ENE,78,0.0,2.0,88,0.00,,SKC,0.00,0.00,VWS V14.00,2013-02-04 02:24:00,
2013-02-03 20:29:00,9.9,7.1,29.98,ENE,78,0.0,0.0,88,0.00,,SKC,0.00,0.00,VWS V14.00,2013-02-04 02:29:00,
2013-02-03 20:34:00,9.9,7.1,29.98,ENE,78,0.0,0.0,88,0.00,,SKC,0.00,0.00,VWS V14.00,2013-02-04 02:34:00,
2013-02-03 20:39:00,9.8,7.0,29.98,East,80,1.0,3.0,88,0.00,,SKC,0.00,0.00,VWS V14.00,2013-02-04 02:39:00,
2013-02-03 20:44:00,9.8,7.0,29.98,NE,50,1.0,2.0,88,0.00,,SKC,0.00,0.00,VWS V14.00,2013-02-04 02:44:00,
2013-02-03 20:49:00,9.7,6.9,29.98,South,169,0.0,2.0,88,0.00,,SKC,0.00,0.00,VWS V14.00,2013-02-04 02:49:00,
2013-02-03 20:54:00,9.7,6.9,29.98,SSE,167,0.0,0.0,88,0.00,,SKC,0.00,0.00,VWS V14.00,2013-02-04 02:54:00,
2013-02-03 20:59:00,9.6,6.8,29.98,ENE,78,0.0,2.0,88,0.00,,SKC,0.00,0.00,VWS V14.00,2013-02-04 02:59:00,
2013-02-03 21:04:00,9.6,6.8,29.98,East,96,1.0,4.0,88,0.00,,SKC,0.00,0.00,VWS V14.00,2013-02-04 03:04:00,
2013-02-03 21:09:00,9.5,6.7,29.99,NE,56,0.0,2.0,88,0.00,,SKC,0.00,0.00,VWS V14.00,2013-02-04 03:09:00,
2013-02-03 21:14:00,9.5,6.7,29.99,NE,56,1.0,2.0,88,0.00,,SKC,0.00,0.00,VWS V14.00,2013-02-04 03:14:00,
2013-02-03 21:19:00,9.5,6.4,29.99,NE,48,0.0,2.0,87,0.00,,SKC,0.00,0.00,VWS V14.00,2013-02-04 03:19:00,
2013-02-03 21:24:00,9.4,6.6,29.99,East,86,1.0,1.0,88,0.00,,SKC,0.00,0.00,VWS V14.00,2013-02-04 03:24:00,
2013-02-03 21:29:00,9.4,6.6,29.99,East,79,0.0,1.0,88,0.00,,SKC,0.00,0.00,VWS V14.00,2013-02-04 03:29:00,
2013-02-03 21:34:00,9.4,6.6,29.99,East,79,0.0,0.0,88,0.00,,SKC,0.00,0.00,VWS V14.00,2013-02-04 03:34:00,
2013-02-03 21:39:00,9.4,6.6,29.99,SE,127,1.0,1.0,88,0.00,,SKC,0.00,0.00,VWS V14.00,2013-02-04 03:39:00,
2013-02-03 21:44:00,9.4,6.6,29.99,East,82,0.0,0.0,88,0.00,,SKC,0.00,0.00,VWS V14.00,2013-02-04 03:44:00,
2013-02-03 21:49:00,9.4,6.6,29.99,East,82,0.0,2.0,88,0.00,,SKC,0.00,0.00,VWS V14.00,2013-02-04 03:49:00,
2013-02-03 21:54:00,9.3,6.5,29.99,East,82,0.0,0.0,88,0.00,,SKC,0.00,0.00,VWS V14.00,2013-02-04 03:54:00,
2013-02-03 21:59:00,9.3,6.5,30.00,NNE,26,2.0,2.0,88,0.00,,SKC,0.00,0.00,VWS V14.00,2013-02-04 03:59:00,
2013-02-03 22:04:00,9.3,6.5,29.99,NNE,26,0.0,0.0,88,0.00,,SKC,0.00,0.00,VWS V14.00,2013-02-04 04:04:00,
2013-02-03 22:09:00,9.3,6.5,29.99,ENE,57,0.0,3.0,88,0.00,,SKC,0.00,0.00,VWS V14.00,2013-02-04 04:09:00,
2013-02-03 22:14:00,9.3,6.5,29.99,ENE,58,0.0,2.0,88,0.00,,SKC,0.00,0.00,VWS V14.00,2013-02-04 04:14:00,
2013-02-03 22:19:00,9.3,6.5,29.98,ESE,112,0.0,3.0,88,0.00,,SKC,0.00,0.00,VWS V14.00,2013-02-04 04:19:00,
2013-02-03 22:24:00,9.3,6.5,29.99,ESE,112,0.0,0.0,88,0.00,,SKC,0.00,0.00,VWS V14.00,2013-02-04 04:24:00,
2013-02-03 22:29:00,9.3,6.5,29.99,NE,49,0.0,3.0,88,0.00,,SKC,0.00,0.00,VWS V14.00,2013-02-04 04:29:00,
2013-02-03 22:34:00,9.3,6.5,29.99,NE,56,3.0,4.0,88,0.00,,SKC,0.00,0.00,VWS V14.00,2013-02-04 04:34:00,
2013-02-03 22:39:00,9.3,6.5,29.99,ESE,114,1.0,2.0,88,0.00,,SKC,0.00,0.00,VWS V14.00,2013-02-04 04:39:00,
2013-02-03 22:44:00,9.3,6.5,29.99,ENE,77,1.0,2.0,88,0.00,,SKC,0.00,0.00,VWS V14.00,2013-02-04 04:44:00,
2013-02-03 22:49:00,9.3,6.5,29.99,ENE,77,0.0,0.0,88,0.00,,SKC,0.00,0.00,VWS V14.00,2013-02-04 04:49:00,
2013-02-03 22:54:00,9.3,6.5,30.00,ENE,77,0.0,2.0,88,0.00,,SKC,0.00,0.00,VWS V14.00,2013-02-04 04:54:00,
2013-02-03 22:59:00,9.3,6.5,30.00,ENE,72,1.0,4.0,88,0.00,,SKC,0.00,0.00,VWS V14.00,2013-02-04 04:59:00,
2013-02-03 23:01:00,9.4,6.6,30.00,SE,127,0.0,4.0,88,0.00,,SKC,0.00,0.00,VWS V14.00,2013-02-04 05:01:00,
2013-02-03 23:03:00,9.4,6.6,30.00,NE,39,5.0,5.0,88,0.00,,SKC,0.00,0.00,VWS V14.00,2013-02-04 05:03:00,
2013-02-03 23:05:00,9.3,6.5,30.00,ESE,109,0.0,5.0,88,0.00,,SKC,0.00,0.00,VWS V14.00,2013-02-04 05:05:00,
2013-02-03 23:10:00,9.4,6.6,29.99,SE,138,0.0,4.0,88,0.00,,SKC,0.00,0.00,VWS V14.00,2013-02-04 05:10:00,
2013-02-03 23:15:00,9.4,6.6,29.99,SE,138,0.0,0.0,88,0.00,,SKC,0.00,0.00,VWS V14.00,2013-02-04 05:15:00,
2013-02-03 23:20:00,9.4,6.6,29.99,SE,145,0.0,1.0,88,0.00,,SKC,0.00,0.00,VWS V14.00,2013-02-04 05:20:00,
2013-02-03 23:25:00,9.4,6.6,30.00,SE,144,0.0,3.0,88,0.00,,SKC,0.00,0.00,VWS V14.00,2013-02-04 05:25:00,
2013-02-03 23:30:00,9.4,6.6,30.00,NE,42,2.0,3.0,88,0.00,,SKC,0.00,0.00,VWS V14.00,2013-02-04 05:30:00,
2013-02-03 23:35:00,9.4,6.6,30.00,East,100,1.0,4.0,88,0.00,,SKC,0.00,0.00,VWS V14.00,2013-02-04 05:35:00,
2013-02-03 23:40:00,9.4,6.6,30.00,NE,36,0.0,1.0,88,0.00,,SKC,0.00,0.00,VWS V14.00,2013-02-04 05:40:00,
2013-02-03 23:45:00,9.4,6.6,30.00,ESE,113,0.0,2.0,88,0.00,,SKC,0.00,0.00,VWS V14.00,2013-02-04 05:45:00,
2013-02-03 23:53:00,9.5,6.7,30.00,East,84,0.0,4.0,88,0.00,,SKC,0.00,0.00,VWS V14.00,2013-02-04 05:53:00,
2013-02-03 23:59:00,9.5,6.7,30.00,East,88,0.0,0.0,88,0.00,,SKC,0.00,0.00,VWS V14.00,2013-02-04 05:59:00,